Location: Sternwarte auf dem Internationalen Platz Vogelsang IP
(50.5721°N, 6.4398°E)
Time: 07:42:24
(UTC+01:00)

A-11 Canister half - Visible Passes

Search period start: 07 December 2025 00:00
Search period end: 17 December 2025 00:00
Orbit: 1511 x 1688 km, 47.2° (Epoch: 06 December)

Date Brightness Start Highest point End Pass type
(mag) Time Alt. Az. Time Alt. Az. Time Alt. Az.
07 Dec 9.5 17:35:59 10° SW 17:44:57 51° SSE 17:53:12 14° E visible
07 Dec 9.0 19:39:44 10° WSW 19:49:16 74° S 19:51:23 58° ESE visible
07 Dec 10.1 21:44:19 10° W 21:49:34 36° W 21:49:34 36° W visible
08 Dec 9.6 17:13:05 10° SW 17:21:58 49° SSE 17:31:11 10° E visible
08 Dec 9.0 19:16:43 10° WSW 19:26:14 73° S 19:29:36 46° ESE visible
08 Dec 9.7 21:21:18 10° W 21:27:47 46° WSW 21:27:47 46° WSW visible
09 Dec 9.7 16:50:11 10° SW 16:58:58 47° SSE 17:08:06 10° E visible
09 Dec 9.1 18:53:44 10° WSW 19:03:11 73° S 19:07:49 36° E visible
09 Dec 9.4 20:58:16 10° W 21:06:00 57° WSW 21:06:00 57° WSW visible
09 Dec 11.1 23:03:10 10° W 23:04:11 13° W 23:04:11 13° W visible
10 Dec 9.1 18:30:44 10° WSW 18:40:09 72° S 18:46:03 28° E visible
10 Dec 9.1 20:35:15 10° W 20:44:14 66° SSW 20:44:14 66° SSW visible
10 Dec 10.8 22:40:05 10° W 22:42:26 18° W 22:42:26 18° W visible
11 Dec 9.2 18:07:44 10° WSW 18:17:07 71° S 18:24:18 21° E visible
11 Dec 9.0 20:12:13 10° W 20:21:44 68° SSW 20:22:30 66° S visible
11 Dec 10.6 22:17:02 10° W 22:20:41 24° W 22:20:41 24° W visible
12 Dec 9.2 17:44:44 10° WSW 17:54:05 70° SSE 18:02:35 15° E visible
12 Dec 9.1 19:49:12 10° W 19:58:42 69° SSW 20:00:47 57° SE visible
12 Dec 10.3 21:53:58 10° W 21:58:58 30° WSW 21:58:58 30° WSW visible
13 Dec 9.3 17:21:45 10° WSW 17:31:03 69° SSE 17:40:44 10° E visible
13 Dec 9.1 19:26:12 10° W 19:35:40 70° S 19:39:06 45° SE visible
13 Dec 10.0 21:30:55 10° W 21:37:17 37° WSW 21:37:17 37° WSW visible
14 Dec 9.3 16:58:45 10° WSW 17:08:02 68° SSE 17:17:39 10° E visible
14 Dec 9.1 19:03:10 10° W 19:12:37 71° S 19:17:27 34° ESE visible
14 Dec 9.8 21:07:52 10° W 21:15:40 43° SW 21:15:40 43° SW visible
15 Dec 9.2 18:40:09 10° W 18:49:35 72° S 18:55:52 25° ESE visible
15 Dec 9.6 20:44:50 10° W 20:53:49 46° SSW 20:54:05 46° SSW visible
15 Dec 11.1 22:51:09 10° W 22:52:17 12° W 22:52:17 12° W visible
16 Dec 9.2 18:17:08 10° W 18:26:33 72° S 18:34:21 18° ESE visible
16 Dec 9.6 20:21:47 10° W 20:30:49 48° SSW 20:32:34 44° S visible
16 Dec 10.9 22:27:53 10° W 22:30:46 16° WSW 22:30:46 16° WSW visible
